Regional Weather Roundup
Issued by NWS

Home | Current Version | Previous Version | Graphics & Text | Print | Product List | Glossary Off
Versions: 1 2 3 4 5 6 7 8 9 10 11 12 13 14 15 16 17 18 19 20 21 22 23 24 25 26 27 28 29 30 31 32 33 34 35 36 37 38 39 40 41 42 43 44 45 46 47 48 49 50

000
ASUS43 KDMX 220407
RWRIA

WEATHER ROUNDUP FOR IOWA
NATIONAL WEATHER SERVICE DES MOINES IA
1100 PM CDT MON JUL 21 2014

NOTE: "FAIR" INDICATES FEW OR NO CLOUDS BELOW 12,000 FEET WITH NO
SIGNIFICANT WEATHER AND/OR OBSTRUCTIONS TO VISIBILITY.

* - THESE STATIONS ARE NOT NWS STATIONS...THUS NOT UNDER NWS
QUALITY CONTROL.  THEY ALSO DO NOT REPORT WEATHER SUCH
AS PRECIPITATION OR FOG.

IAZ001>003-012>014-020>022-031>034-043>046-220500-
   NORTHWEST IOWA

CITY           SKY/WX    TMP DP  RH WIND       PRES   REMARKS
CARROLL *      CLEAR     81  75  83 S9G15     29.87F HX  86
CHEROKEE *     CLOUDY    81  81 100 S8        29.83S HX  91
DENISON *      CLEAR     82  77  83 S16       29.84S HX  91
LE MARS *      CLEAR     81  77  89 S9        29.82S HX  88
ORANGE CITY *  CLEAR     82  75  78 S5        29.83S HX  89
SHELDON *      CLEAR     79  77  94 S7        29.82S HX  83
SIOUX CITY     MOCLDY    82  78  88 SE9       29.81R HX  91
SPENCER        MOCLDY    81  78  91 S8        29.84R HX  89
STORM LAKE *   CLEAR     81  81 100 S10       29.86F HX  91
$$

IAZ055>058-069>071-079>083-090>094-220500-
   SOUTHWEST IOWA

CITY           SKY/WX    TMP DP  RH WIND       PRES   REMARKS
ATLANTIC *     CLEAR     82  75  78 S10       29.88S HX  89
AUDUBON *      CLEAR     84  79  84 S8        29.90S HX  96
CLARINDA *     CLEAR     81  75  83 S9        29.91S HX  86
COUNCIL BLFS *   N/A     84  79  84 S10       29.87R HX  96
CRESTON *      CLEAR     81  77  89 S12       29.94S HX  88
HARLAN  *      CLEAR     82  77  83 S10       29.91S HX  91
LAMONI         CLEAR     80  75  84 S10G18    29.96R HX  85
RED OAK *      PTCLDY    82  75  78 S12       29.89S HX  89
SHENANDOAH *     N/A     82  75  78 S10       29.89R HX  89
$$

IAZ047>049-059>061-072>074-084-220500-
   CENTRAL IOWA

CITY           SKY/WX    TMP DP  RH WIND       PRES   REMARKS
AMES           CLEAR     80  76  87 SE9       29.91R HX  86
ANKENY *       CLEAR     82  77  83 S9        29.91F HX  91
CHARITON *     PTCLDY    81  75  83 S10       29.96R HX  86
DES MOINES     CLEAR     84  75  74 S13       29.91S HX  92
GRINNELL*      CLOUDY    79  72  78 SE10      29.97R HX  82
KNOXVILLE *    CLEAR     81  75  83 S10       29.94R HX  86
MARSHALLTOWN   CLOUDY    81  75  82 SE12      29.93S HX  87
PELLA *        CLEAR     81  75  83 S9        29.96S HX  86
PERRY *          N/A     81  75  83 S9        29.89S HX  86
$$

IAZ004>006-015-016-023>025-035-036-220500-
   NORTH CENTRAL IOWA

CITY           SKY/WX    TMP DP  RH WIND       PRES   REMARKS
ALGONA *       CLEAR     82  79  89 S15G23    29.85F HX  93
CLARION *      CLEAR     81  77  89 S13       29.89S HX  88
ESTHERVILLE    MOCLDY    81  77  88 S15G22    29.84S HX  88
FORT DODGE *   MOCLDY    82  75  78 S10       29.89S HX  89
MASON CITY     MOCLDY    80  76  87 SE13      29.90F HX  86
FOREST CITY *  CLEAR     81  77  89 S14       29.87F HX  88
IOWA FALLS *     N/A     81  75  83 S10       29.93S HX  86
$$

IAZ007>011-017>019-026>030-037>042-050>054-066-220500-
   NORTHEAST IOWA

CITY           SKY/WX    TMP DP  RH WIND       PRES   REMARKS
CEDAR RAPIDS   CLEAR     77  68  73 S10       29.97S
CHARLES CITY * MOCLDY    79  73  83 S10G17    29.93S HX  82
DECORAH *      CLOUDY    77  72  83 S9G16     29.94F
DUBUQUE        CLEAR     74  69  85 S12       30.00S
MONTICELLO *   CLEAR     75  70  83 SE6       29.99S
OELWEIN *      CLEAR     75  73  94 S13       29.97S
WATERLOO       PTCLDY    80  71  74 S16       29.92F HX  84
$$

IAZ064-065-067-068-078-220500-
   EAST CENTRAL IOWA

CITY           SKY/WX    TMP DP  RH WIND       PRES   REMARKS
DAVENPORT      CLEAR     77  68  73 S15       30.01F
IOWA CITY      CLEAR     76  70  82 SE9       29.99S
MT. PLEASANT * CLEAR     77  68  73 SE8       30.00S
MUSCATINE *    CLEAR     77  70  78 S9G15     29.99S
QUAD CITIES    CLEAR     76  69  79 SE6       30.01S
$$

IAZ062-063-075>077-085>089-095>099-220500-
   SOUTHEAST IOWA

CITY           SKY/WX    TMP DP  RH WIND       PRES   REMARKS
BURLINGTON     CLEAR     77  69  76 S9        30.01S
FAIRFIELD *    CLEAR     77  68  73 S9        29.99S
FORT MADISON * CLEAR     79  70  73 S9        30.02S HX  81
KEOKUK *       CLEAR     77  70  78 SE7G13    30.01R
OSKALOOSA *      N/A     77  72  83 S10       29.97S
CENTERVILLE *  CLEAR     77  75  94 SE8       30.00S
OTTUMWA        PTCLDY    78  70  76 S10       29.97S HX  80
WASHINGTON *   CLEAR     75  70  83 S8        29.99S
$$

ABBREVIATIONS USED IN REMARKS
   TC - TEMPERATURES IN CELSIUS
  WCI - WIND CHILL INDEX
   HX - HEAT INDEX
  VSB - VISIBILITY
$$




USA.gov is the U.S. government's official web portal to all federal, state and local government web resources and services.